K5SVV Weather Reports


Display with metric or nautical units.
time (UTC)temp
F
wind
direction
speed
MPH
gust
MPH
rain 1hr
in
rain 24hr
in
rain mn
in
humidity
%
barometer
mb
20260905185349 95 197 2.0 2.0 0.00 0.00 0.00 48 1012.7
20260905184848 97 330 0.0 0.0 0.00 0.00 0.00 47 1012.8
20260905184348 97 207 1.0 2.0 0.00 0.00 0.00 48 1012.8
20260905183846 97 253 0.0 0.0 0.00 0.00 0.00 47 1013.0
20260905183342 96 169 2.0 2.0 0.00 0.00 0.00 47 1012.9
20260905182841 96 181 5.0 6.0 0.00 0.00 0.00 47 1013.0
20260905182335 95 232 3.0 3.0 0.00 0.00 0.00 50 1013.1
20260905181831 95 172 2.0 2.0 0.00 0.00 0.00 49 1013.2
20260905181331 96 196 2.0 2.0 0.00 0.00 0.00 48 1013.4
20260905180830 96 127 5.0 7.0 0.00 0.00 0.00 50 1013.4
20260905180325 95 230 0.0 0.0 0.00 0.00 0.00 49 1013.2
20260905175820 93 19 0.0 0.0 0.00 0.00 0.00 53 1013.6
20260905175314 92 13 1.0 2.0 0.00 0.00 0.00 53 1013.6
20260905174809 92 187 1.0 2.0 0.00 0.00 0.00 54 1013.8
20260905174306 94 165 4.0 4.0 0.00 0.00 0.00 53 1013.7
20260905173801 93 199 0.0 0.0 0.00 0.00 0.00 52 1013.9
20260905173257 95 175 0.0 0.0 0.00 0.00 0.00 52 1014.0
20260905172756 96 223 4.0 6.0 0.00 0.00 0.00 50 1013.9
20260905172255 95 134 3.0 3.0 0.00 0.00 0.00 50 1014.0
20260905171751 94 201 5.0 6.0 0.00 0.00 0.00 52 1014.2
20260905171248 93 204 3.0 4.0 0.00 0.00 0.00 53 1014.1
20260905170744 92 226 1.0 2.0 0.00 0.00 0.00 54 1014.1
20260905170240 93 199 2.0 3.0 0.00 0.00 0.00 54 1014.2
20260905165738 92 159 0.0 0.0 0.00 0.00 0.00 55 1014.2
20260905165234 93 212 2.0 2.0 0.00 0.00 0.00 55 1014.4
20260905164734 93 174 0.0 0.0 0.00 0.00 0.00 54 1014.2
20260905164228 93 92 2.0 2.0 0.00 0.00 0.00 56 1014.1
20260905163725 92 129 1.0 2.0 0.00 0.00 0.00 55 1014.1
20260905163221 92 186 4.0 6.0 0.00 0.00 0.00 57 1014.2
20260905162717 91 279 0.0 0.0 0.00 0.00 0.00 59 1014.4
20260905162216 92 329 3.0 3.0 0.00 0.00 0.00 58 1014.4
20260905161711 91 183 2.0 2.0 0.00 0.00 0.00 57 1014.5
20260905161209 92 243 4.0 4.0 0.00 0.00 0.00 57 1014.4
20260905160708 92 107 0.0 1.0 0.00 0.00 0.00 58 1014.5
20260905160208 91 187 0.0 1.0 0.00 0.00 0.00 58 1014.2
20260905155702 90 191 0.0 0.0 0.00 0.00 0.00 61 1014.4
20260905155202 90 251 0.0 0.0 0.00 0.00 0.00 61 1014.2
20260905154655 90 187 4.0 4.0 0.00 0.00 0.00 61 1014.2
20260905154151 89 231 0.0 0.0 0.00 0.00 0.00 62 1014.4
20260905153641 89 183 5.0 6.0 0.00 0.00 0.00 62 1014.2
20260905153137 89 167 0.0 0.0 0.00 0.00 0.00 64 1014.5
20260905152631 89 223 2.0 2.0 0.00 0.00 0.00 63 1014.5
20260905152126 88 227 1.0 2.0 0.00 0.00 0.00 64 1014.4
20260905151621 88 213 1.0 2.0 0.00 0.00 0.00 65 1014.4
20260905151116 87 177 4.0 4.0 0.00 0.00 0.00 66 1014.1
20260905150612 87 192 4.0 4.0 0.00 0.00 0.00 66 1014.4
20260905150109 87 184 5.0 6.0 0.00 0.00 0.00 66 1014.4
20260905145603 86 176 6.0 7.0 0.00 0.00 0.00 68 1014.1
20260905145102 86 179 4.0 6.0 0.00 0.00 0.00 69 1013.8
20260905144557 86 165 4.0 4.0 0.00 0.00 0.00 69 1014.0
20260905144056 86 178 2.0 3.0 0.00 0.00 0.00 70 1014.0
20260905143556 85 192 5.0 6.0 0.00 0.00 0.00 71 1014.1
20260905143051 85 236 5.0 6.0 0.00 0.00 0.00 71 1014.0
20260905142549 85 189 4.0 6.0 0.00 0.00 0.00 71 1014.1
20260905142044 84 199 2.0 3.0 0.00 0.00 0.00 73 1014.1
20260905141539 84 182 1.0 3.0 0.00 0.00 0.00 74 1014.0
20260905141035 84 193 4.0 7.0 0.00 0.00 0.00 75 1014.2
20260905140530 83 197 3.0 3.0 0.00 0.00 0.00 76 1014.0
20260905140029 82 196 2.0 3.0 0.00 0.00 0.00 78 1014.2
20260905135525 82 209 2.0 2.0 0.00 0.00 0.00 80 1014.0
20260905135019 81 193 3.0 4.0 0.00 0.00 0.00 81 1013.9
20260905134514 80 167 1.0 1.0 0.00 0.00 0.00 83 1013.8
20260905134013 80 202 3.0 3.0 0.00 0.00 0.00 83 1013.9
20260905133509 79 209 3.0 3.0 0.00 0.00 0.00 84 1014.0
20260905133008 79 191 2.0 2.0 0.00 0.00 0.00 84 1013.8
20260905132502 79 172 4.0 4.0 0.00 0.00 0.00 84 1013.6
20260905131957 79 220 3.0 3.0 0.00 0.00 0.00 84 1013.5
20260905131453 79 180 2.0 3.0 0.00 0.00 0.00 84 1013.5
20260905130948 79 173 1.0 1.0 0.00 0.00 0.00 85 1013.5
20260905130447 78 178 2.0 2.0 0.00 0.00 0.00 86 1013.2
20260905125941 77 195 0.0 0.0 0.00 0.00 0.00 87 1013.6
20260905125436 77 200 0.0 0.0 0.00 0.00 0.00 88 1013.8
20260905124932 76 203 0.0 0.0 0.00 0.00 0.00 88 1013.6
20260905124429 76 203 0.0 0.0 0.00 0.00 0.00 89 1013.6
20260905123929 76 203 0.0 0.0 0.00 0.00 0.00 89 1013.8
20260905123425 76 203 0.0 0.0 0.00 0.00 0.00 89 1013.5
20260905122920 75 203 0.0 0.0 0.00 0.00 0.00 90 1013.5
20260905122420 75 203 0.0 0.0 0.00 0.00 0.00 90 1013.3
20260905121915 75 203 0.0 0.0 0.00 0.00 0.00 90 1013.4
20260905121411 75 203 0.0 0.0 0.00 0.00 0.00 90 1013.4
20260905120909 75 203 0.0 0.0 0.00 0.00 0.00 90 1013.7
20260905120404 75 203 0.0 0.0 0.00 0.00 0.00 89 1013.2
20260905115859 75 203 0.0 0.0 0.00 0.00 0.00 89 1013.4
20260905115358 75 203 0.0 0.0 0.00 0.00 0.00 89 1013.1
20260905114853 75 203 0.0 0.0 0.00 0.00 0.00 88 1013.3
20260905114352 76 203 0.0 0.0 0.00 0.00 0.00 88 1013.2
20260905113846 76 203 0.0 0.0 0.00 0.00 0.00 87 1013.2
20260905113342 76 203 0.0 0.0 0.00 0.00 0.00 87 1013.4
20260905112837 76 203 0.0 0.0 0.00 0.00 0.00 87 1013.1
20260905112331 77 203 0.0 0.0 0.00 0.00 0.00 87 1013.0
20260905111826 77 203 0.0 0.0 0.00 0.00 0.00 87 1013.3
20260905111321 77 203 0.0 0.0 0.00 0.00 0.00 87 1013.1
20260905110820 77 203 0.0 0.0 0.00 0.00 0.00 87 1013.1
20260905110314 77 203 0.0 0.0 0.00 0.00 0.00 87 1013.1
20260905105810 77 203 0.0 0.0 0.00 0.00 0.00 87 1013.1
20260905105309 77 206 0.0 0.0 0.00 0.00 0.00 86 1013.1
20260905104803 77 205 0.0 0.0 0.00 0.00 0.00 86 1013.1
20260905104300 77 207 0.0 0.0 0.00 0.00 0.00 86 1012.9
20260905103800 77 202 0.0 0.0 0.00 0.00 0.00 86 1012.7
20260905103255 77 212 0.0 0.0 0.00 0.00 0.00 86 1013.0
20260905102750 77 210 2.0 2.0 0.00 0.00 0.00 86 1013.1
20260905102248 77 197 2.0 3.0 0.00 0.00 0.00 86 1013.0
20260905101747 77 222 0.0 0.0 0.00 0.00 0.00 86 1013.1
20260905101245 77 213 0.0 0.0 0.00 0.00 0.00 85 1013.1
20260905100740 77 197 0.0 0.0 0.00 0.00 0.00 85 1013.0
20260905100236 77 204 0.0 0.0 0.00 0.00 0.00 85 1013.0
20260905095735 77 203 0.0 0.0 0.00 0.00 0.00 85 1012.9
20260905095234 77 203 0.0 0.0 0.00 0.00 0.00 84 1013.1
20260905094730 78 203 2.0 2.0 0.00 0.00 0.00 84 1013.2
20260905094225 78 204 1.0 2.0 0.00 0.00 0.00 84 1012.9
20260905093719 78 203 2.0 2.0 0.00 0.00 0.00 83 1012.9
20260905093215 78 208 2.0 2.0 0.00 0.00 0.00 83 1013.1
20260905092710 78 200 3.0 3.0 0.00 0.00 0.00 83 1012.8
20260905092206 78 204 3.0 3.0 0.00 0.00 0.00 83 1013.0
20260905091705 78 201 0.0 0.0 0.00 0.00 0.00 83 1012.8
20260905091200 78 197 0.0 0.0 0.00 0.00 0.00 83 1012.6
20260905090659 78 201 0.0 0.0 0.00 0.00 0.00 82 1012.8
20260905090155 78 209 0.0 0.0 0.00 0.00 0.00 82 1012.7
20260905085654 78 207 1.0 1.0 0.00 0.00 0.00 82 1012.9
20260905085149 78 218 3.0 3.0 0.00 0.00 0.00 82 1012.5
20260905084649 78 207 3.0 3.0 0.00 0.00 0.00 81 1012.5
20260905084144 79 207 4.0 4.0 0.00 0.00 0.00 81 1012.7
20260905083638 79 215 3.0 4.0 0.00 0.00 0.00 81 1012.5
20260905083135 79 202 3.0 3.0 0.00 0.00 0.00 80 1012.8
20260905082630 79 208 3.0 4.0 0.00 0.00 0.00 80 1012.7
20260905082126 79 204 3.0 3.0 0.00 0.00 0.00 80 1012.8
20260905081625 79 200 3.0 3.0 0.00 0.00 0.00 80 1012.7
20260905081120 79 174 4.0 4.0 0.00 0.00 0.00 79 1012.6
20260905080615 79 182 2.0 2.0 0.00 0.00 0.00 79 1012.9
20260905080115 79 183 1.0 2.0 0.00 0.00 0.00 78 1012.6
20260905075614 80 183 3.0 4.0 0.00 0.00 0.00 78 1012.6
20260905075108 80 205 3.0 3.0 0.00 0.00 0.00 78 1012.8
20260905074608 80 204 3.0 4.0 0.00 0.00 0.00 78 1012.9
20260905074103 80 185 5.0 6.0 0.00 0.00 0.00 78 1012.7
20260905073559 80 194 4.0 4.0 0.00 0.00 0.00 78 1012.6
20260905073054 80 204 3.0 3.0 0.00 0.00 0.00 78 1013.1
20260905072553 80 180 4.0 4.0 0.00 0.00 0.00 78 1013.1
20260905072049 80 211 3.0 3.0 0.00 0.00 0.00 78 1012.8
20260905071546 80 226 5.0 7.0 0.00 0.00 0.00 78 1013.0
20260905071040 80 205 2.0 2.0 0.00 0.00 0.00 77 1012.9
20260905070536 80 193 2.0 3.0 0.00 0.00 0.00 77 1013.1
20260905070032 80 187 3.0 3.0 0.00 0.00 0.00 77 1013.1
20260905065529 80 197 2.0 3.0 0.00 0.00 0.00 77 1013.1
20260905065024 80 195 2.0 2.0 0.00 0.00 0.00 77 1013.0
20260905064519 81 196 2.0 3.0 0.00 0.00 0.00 77 1013.3
20260905064015 81 201 2.0 2.0 0.00 0.00 0.00 77 1013.3
20260905063514 81 203 2.0 3.0 0.00 0.00 0.00 77 1013.3
20260905063010 81 202 2.0 2.0 0.00 0.00 0.00 76 1013.1
20260905062510 81 211 3.0 4.0 0.00 0.00 0.00 76 1013.4
20260905062005 81 201 2.0 2.0 0.00 0.00 0.00 76 1013.3
20260905061500 81 189 2.0 2.0 0.00 0.00 0.00 75 1013.4
20260905060959 82 196 2.0 2.0 0.00 0.00 0.00 75 1013.2
20260905060454 82 199 2.0 2.0 0.00 0.00 0.00 75 1013.1
20260905055949 82 208 4.0 4.0 0.00 0.00 0.00 75 1013.2
20260905055448 82 184 3.0 4.0 0.00 0.00 0.00 74 1013.1
20260905054943 82 199 4.0 4.0 0.00 0.00 0.00 74 1012.9
20260905054438 82 202 2.0 3.0 0.00 0.00 0.00 74 1013.0
20260905053933 82 196 2.0 3.0 0.00 0.00 0.00 74 1013.1
20260905053428 82 207 4.0 4.0 0.00 0.00 0.00 74 1012.9
20260905052924 82 201 2.0 3.0 0.00 0.00 0.00 74 1012.9
20260905052423 82 182 4.0 6.0 0.00 0.00 0.00 74 1012.8
20260905051922 83 184 4.0 6.0 0.00 0.00 0.00 73 1012.9
20260905051418 83 196 0.0 0.0 0.00 0.00 0.00 73 1012.9
20260905050916 83 185 4.0 6.0 0.00 0.00 0.00 73 1012.9
20260905050411 83 195 2.0 2.0 0.00 0.00 0.00 72 1012.9
20260905045907 83 194 2.0 2.0 0.00 0.00 0.00 72 1012.8
20260905045402 84 190 5.0 6.0 0.00 0.00 0.00 72 1012.8
20260905044857 84 178 3.0 3.0 0.00 0.00 0.00 71 1012.8
20260905044352 84 175 0.0 0.0 0.00 0.00 0.00 71 1013.0
20260905043851 84 190 0.0 1.0 0.00 0.00 0.00 71 1012.7
20260905043346 84 197 4.0 6.0 0.00 0.00 0.00 71 1012.9
20260905042841 84 198 4.0 4.0 0.00 0.00 0.00 70 1012.9
20260905042341 84 203 3.0 4.0 0.00 0.00 0.00 69 1013.0
20260905041835 84 192 4.0 4.0 0.00 0.00 0.00 69 1012.8
20260905041332 85 220 5.0 7.0 0.00 0.00 0.00 69 1012.9
20260905040826 84 189 4.0 6.0 0.00 0.00 0.00 68 1012.8
20260905040324 84 130 4.0 4.0 0.00 0.00 0.00 68 1012.9
20260905035819 85 184 6.0 7.0 0.00 0.00 0.00 68 1013.0
20260905035315 85 189 0.0 0.0 0.00 0.00 0.00 68 1013.0
20260905034811 85 185 2.0 2.0 0.00 0.00 0.00 67 1013.3
20260905034306 85 179 4.0 6.0 0.00 0.00 0.00 67 1012.9
20260905033805 85 167 0.0 0.0 0.00 0.00 0.00 67 1013.1
20260905033300 86 193 5.0 6.0 0.00 0.00 0.00 67 1013.0
20260905032759 86 184 3.0 3.0 0.00 0.00 0.00 66 1013.3
20260905032255 86 167 0.0 1.0 0.00 0.00 0.00 66 1013.2
20260905031750 86 190 0.0 0.0 0.00 0.00 0.00 66 1013.2
20260905031246 86 179 3.0 4.0 0.00 0.00 0.00 65 1013.0
20260905030741 86 168 3.0 4.0 0.00 0.00 0.00 65 1013.2
20260905030236 86 180 2.0 3.0 0.00 0.00 0.00 65 1012.9
20260905025731 87 165 4.0 4.0 0.00 0.00 0.00 64 1012.9
20260905025226 87 149 0.0 2.0 0.00 0.00 0.00 64 1012.8
20260905024722 87 184 2.0 2.0 0.00 0.00 0.00 63 1012.8
20260905024218 87 150 4.0 6.0 0.00 0.00 0.00 63 1012.7
20260905023713 87 184 1.0 1.0 0.00 0.00 0.00 63 1012.7
20260905023213 87 192 3.0 4.0 0.00 0.00 0.00 63 1012.6
20260905022711 87 180 4.0 6.0 0.00 0.00 0.00 63 1012.3
20260905022207 88 162 2.0 2.0 0.00 0.00 0.00 63 1012.4
20260905021701 88 179 0.0 0.0 0.00 0.00 0.00 62 1012.0
20260905021156 88 165 4.0 4.0 0.00 0.00 0.00 62 1012.4
20260905020651 88 129 5.0 8.0 0.00 0.00 0.00 61 1012.2
20260905020147 88 155 4.0 6.0 0.00 0.00 0.00 61 1012.0
20260905015645 89 175 0.0 1.0 0.00 0.00 0.00 60 1011.9
20260905015139 89 170 2.0 2.0 0.00 0.00 0.00 59 1011.8
20260905014633 89 180 1.0 2.0 0.00 0.00 0.00 58 1011.8
20260905014128 89 190 0.0 0.0 0.00 0.00 0.00 57 1011.9
20260905013625 89 180 0.0 1.0 0.00 0.00 0.00 57 1011.7
20260905013120 90 191 3.0 4.0 0.00 0.00 0.00 55 1011.6
20260905012615 90 173 1.0 2.0 0.00 0.00 0.00 54 1011.7
20260905012112 90 184 2.0 3.0 0.00 0.00 0.00 53 1011.7
20260905011607 90 167 1.0 1.0 0.00 0.00 0.00 52 1011.5
20260905011102 90 172 1.0 1.0 0.00 0.00 0.00 52 1011.3
20260905010556 91 176 1.0 1.0 0.00 0.00 0.00 51 1011.4
20260905010053 91 163 2.0 2.0 0.00 0.00 0.00 51 1011.3
20260905005548 91 165 3.0 4.0 0.00 0.00 0.00 50 1011.1
20260905005044 91 181 2.0 2.0 0.00 0.00 0.00 50 1011.1
20260905004538 92 180 0.0 0.0 0.00 0.00 0.00 49 1011.1
20260905004034 92 189 2.0 3.0 0.00 0.00 0.00 49 1011.1
20260905003530 93 183 4.0 6.0 0.00 0.00 0.00 48 1011.0
20260905003025 93 166 2.0 2.0 0.00 0.00 0.00 48 1011.2
20260905002520 93 154 0.0 0.0 0.00 0.00 0.00 48 1011.1
20260905002014 93 190 2.0 4.0 0.00 0.00 0.00 48 1011.0
20260905001509 94 154 3.0 4.0 0.00 0.00 0.00 48 1010.9
20260905001003 94 167 3.0 6.0 0.00 0.00 0.00 47 1010.9
20260905000459 95 153 1.0 2.0 0.00 0.00 0.00 48 1011.0
20260904235954 95 177 1.0 2.0 0.00 0.00 0.00 47 1010.8
20260904235450 95 119 4.0 6.0 0.00 0.00 0.00 47 1010.8
20260904234950 95 139 3.0 4.0 0.00 0.00 0.00 47 1011.0
20260904234449 96 200 5.0 7.0 0.00 0.00 0.00 48 1010.8
20260904233946 95 162 6.0 7.0 0.00 0.00 0.00 49 1010.7
20260904233441 96 199 8.0 10.0 0.00 0.00 0.00 48 1010.6
20260904232937 96 172 5.0 8.0 0.00 0.00 0.00 48 1010.7
20260904232433 96 174 4.0 4.0 0.00 0.00 0.00 47 1010.5
20260904231929 97 180 5.0 6.0 0.00 0.00 0.00 47 1010.6
20260904231424 97 135 4.0 6.0 0.00 0.00 0.00 46 1010.7
20260904230919 97 149 2.0 3.0 0.00 0.00 0.00 46 1010.5
20260904230418 97 216 4.0 4.0 0.00 0.00 0.00 46 1010.6
20260904225913 97 173 1.0 2.0 0.00 0.00 0.00 46 1010.6
20260904225411 97 197 9.0 10.0 0.00 0.00 0.00 46 1010.6
20260904224911 98 163 4.0 6.0 0.00 0.00 0.00 46 1010.7
20260904224407 98 177 4.0 8.0 0.00 0.00 0.00 45 1010.8
20260904223901 97 172 2.0 2.0 0.00 0.00 0.00 46 1010.8
20260904223400 97 190 5.0 8.0 0.00 0.00 0.00 46 1010.7
20260904222856 97 82 5.0 7.0 0.00 0.00 0.00 46 1010.9
20260904222351 98 192 8.0 9.0 0.00 0.00 0.00 46 1010.8
20260904221851 98 172 8.0 9.0 0.00 0.00 0.00 45 1010.9
20260904221346 98 162 3.0 4.0 0.00 0.00 0.00 44 1010.6
20260904220841 98 165 3.0 3.0 0.00 0.00 0.00 45 1010.8
20260904220340 98 175 6.0 8.0 0.00 0.00 0.00 45 1010.8
20260904215836 99 165 6.0 7.0 0.00 0.00 0.00 43 1010.7
20260904215331 99 210 0.0 1.0 0.00 0.00 0.00 45 1010.9
20260904214827 99 137 1.0 2.0 0.00 0.00 0.00 44 1010.9
20260904214322 99 205 2.0 6.0 0.00 0.00 0.00 43 1011.1
20260904213820 100 112 4.0 6.0 0.00 0.00 0.00 42 1011.1
20260904213316 99 165 0.0 1.0 0.00 0.00 0.00 42 1011.1
20260904212812 99 160 2.0 4.0 0.00 0.00 0.00 42 1011.0
20260904212312 99 165 2.0 2.0 0.00 0.00 0.00 43 1011.2
20260904211807 98 190 4.0 7.0 0.00 0.00 0.00 44 1011.3
20260904211302 100 193 6.0 9.0 0.00 0.00 0.00 42 1011.2
20260904210756 99 222 2.0 3.0 0.00 0.00 0.00 43 1011.4
20260904210250 99 161 1.0 1.0 0.00 0.00 0.00 43 1011.6
20260904205747 99 188 2.0 3.0 0.00 0.00 0.00 44 1011.6
20260904205243 98 164 2.0 3.0 0.00 0.00 0.00 44 1011.8
20260904204739 98 186 10.0 11.0 0.00 0.00 0.00 44 1011.8
20260904204235 98 177 5.0 7.0 0.00 0.00 0.00 44 1011.6
20260904203731 98 139 6.0 7.0 0.00 0.00 0.00 44 1011.9
20260904203227 98 207 6.0 7.0 0.00 0.00 0.00 42 1012.0
20260904202723 98 180 5.0 6.0 0.00 0.00 0.00 43 1011.8
20260904202219 98 205 4.0 6.0 0.00 0.00 0.00 42 1012.0
20260904201714 98 217 3.0 8.0 0.00 0.00 0.00 44 1012.0
20260904201214 98 190 3.0 4.0 0.00 0.00 0.00 42 1011.9
20260904200708 97 133 1.0 3.0 0.00 0.00 0.00 43 1012.4
20260904200203 97 202 6.0 8.0 0.00 0.00 0.00 45 1012.0
20260904195702 98 151 4.0 6.0 0.00 0.00 0.00 43 1012.3
20260904195156 98 173 6.0 8.0 0.00 0.00 0.00 42 1012.5
20260904194656 97 165 1.0 2.0 0.00 0.00 0.00 45 1012.6
20260904194150 97 204 4.0 6.0 0.00 0.00 0.00 44 1012.4
20260904193645 97 197 5.0 7.0 0.00 0.00 0.00 44 1012.6
20260904193142 97 166 0.0 1.0 0.00 0.00 0.00 45 1012.7
20260904192641 96 151 3.0 3.0 0.00 0.00 0.00 47 1012.7
20260904192137 96 181 6.0 10.0 0.00 0.00 0.00 48 1012.7
20260904191634 96 206 6.0 8.0 0.00 0.00 0.00 48 1012.9
20260904191130 97 169 4.0 6.0 0.00 0.00 0.00 47 1012.7
20260904190625 96 180 7.0 10.0 0.00 0.00 0.00 47 1012.6
20260904190121 96 112 5.0 7.0 0.00 0.00 0.00 47 1012.8